sat.trackr.live / text

‹ back to catalog

STARLINK-35230

NORAD 65681 · 2025-212F

PAYLOAD ACTIVE UNKNOWN

§ Identity

Operator
Country
US
Launch date
2025-09-21
Launch site
AFETR
Launch vehicle
Mass (kg)
RCS (m²)

Purposes: comms

External: N2YO · Heavens-Above · Gunter

§ Orbital elements

Epoch: 2026-05-24T23:29:16.084032Z

Period
94.11 min
Inclination
53.1608°
Eccentricity
0.0001139
Mean motion
15.30182387 rev/d
Perigee alt
474.5 km
Apogee alt
476.0 km
Semi-major
6,853.4 km
B*
3.5107e-4
RAAN
351.3237°
Arg perigee
108.3097°
Mean anomaly
251.8027°
Rev number
3,893

§ Raw data

STARLINK-352301 65681U 25212F   26144.97865838  .00010047  00000+0  35107-3 0  99992 65681  53.1608 351.3237 0001139 108.3097 251.8027 15.30182387 38933

JSON: /api/v1/satellites/65681 · /tle

For live sub-satellite position, see the globe view (requires WebGL).

§ Visibility from observer

Set your observer location to see the next 7 days of passes ≥ 10°. The values pass through the URL so the page stays shareable.

No JS? Fill the form by hand. The geolocation button needs JavaScript.